Flag for Hungary Weather past 2 weeks in Budapest, Hungary

Now
55 °F

Clear.


Feels Like: 53 °F
Forecast: 48 / 66 °F
Wind: 8 mph from Northwest

Location: Ferenc Liszt International Airport

Current Time: May 27, 2015 at 10:20:04 PM

Latest Report: May 27, 2015 at 10:00 PM


Visibility: 10 mi

Pressure: 30.01 "Hg

Humidity: 55%

Dew point: 39 °F

Location of BudapestLocation

Historic Weather in Budapest — Graph

°F

Budapest temperature yesterday

Maximum temperature yesterday: 70 °F (at 3:00 PM)
Minimum temperature yesterday: 55 °F (at 1:00 AM)
Average temperature yesterday: 61 °F

Past Weeks' High & Low Weather Summary

 TemperatureHumidityPressure
High86 °F (May 19, 3:30 PM)100% (May 14, 12:30 AM)30.15 "Hg (May 14, 12:30 AM)
Low41 °F (May 18, 5:00 AM)32% (May 19, 11:30 AM)29.71 "Hg (May 25, 11:30 PM)
Average61 °F74%29.93 "Hg
* Reported May 12 9:00 PM — May 27 9:00 PM, Budapest, Weather by CustomWeather, © 2015

Note: Actual official high and low records may vary slightly from our data, if they occured in-between our weather recording intervals... More about our weather records

Advertising

Budapest weather history for previous 24 hours

 ConditionsComfort  
Time TempWeatherWind HumidityBarometerVisibility
9:00 PM
Wed, May 27
57 °FSunny.13 mph51%30.01 "Hg10 mi
8:30 PM57 °FSunny.12 mph48%29.98 "Hg10 mi
8:00 PM57 °FSunny.13 mph48%29.98 "Hg10 mi
7:30 PM59 °FSunny.15 mph48%29.98 "Hg10 mi
7:00 PM59 °FSunny.14 mph48%29.98 "Hg10 mi
6:30 PM59 °FPassing clouds.16 mph48%29.98 "HgN/A
6:00 PM59 °FSunny.15 mph48%29.98 "Hg10 mi
5:30 PM61 °FSunny.17 mph45%29.95 "Hg10 mi
5:00 PM59 °FSunny.20 mph48%29.95 "Hg10 mi
4:30 PM59 °FSunny.21 mph48%29.95 "Hg10 mi
4:00 PM61 °FSunny.22 mph48%29.95 "Hg10 mi
3:30 PM61 °FSunny.21 mph48%29.95 "Hg10 mi
3:00 PM61 °FSunny.20 mph45%29.92 "Hg10 mi
2:30 PM61 °FSunny.21 mph42%29.92 "Hg10 mi
2:00 PM61 °FPassing clouds.18 mph45%29.92 "HgN/A
1:30 PM61 °FSunny.17 mph48%29.92 "Hg10 mi
1:00 PM61 °FPassing clouds.18 mph45%29.92 "HgN/A
12:30 PM61 °FSunny.20 mph45%29.92 "Hg10 mi
12:00 PM61 °FBroken clouds.17 mph48%29.92 "HgN/A
11:30 AM61 °FScattered clouds.21 mph48%29.89 "HgN/A
11:00 AM61 °FScattered clouds.21 mph52%29.89 "HgN/A
10:30 AM61 °FScattered clouds.23 mph52%29.89 "HgN/A
10:00 AM59 °FScattered clouds.24 mph55%29.89 "HgN/A
9:30 AM57 °FScattered clouds.24 mph59%29.89 "HgN/A
9:00 AM57 °FPartly sunny.20 mph59%29.86 "HgN/A
8:30 AM55 °FBroken clouds.20 mph67%29.86 "HgN/A
8:00 AM55 °FSunny.21 mph67%29.86 "Hg10 mi
7:30 AM54 °FSunny.22 mph72%29.86 "Hg10 mi
7:00 AM54 °FBroken clouds.22 mph77%29.83 "HgN/A
6:30 AM54 °FBroken clouds.21 mph77%29.83 "HgN/A
6:00 AM54 °FLight rain. Broken clouds.21 mph82%29.83 "HgN/A
5:30 AM54 °FLight rain. Partly cloudy.21 mph82%29.83 "HgN/A
5:00 AM52 °FLight rain. Partly cloudy.18 mph88%29.83 "HgN/A
4:30 AM52 °FLight rain. Partly cloudy.21 mph94%29.80 "HgN/A
4:00 AM54 °FLight rain. Partly cloudy.21 mph88%29.80 "HgN/A
3:30 AM54 °FLight rain. Partly cloudy.18 mph94%29.80 "HgN/A
3:00 AM54 °FLight rain. Partly cloudy.17 mph94%29.80 "HgN/A
2:30 AM54 °FLight rain. Partly cloudy.16 mph94%29.80 "HgN/A
2:00 AM55 °FLight rain. Partly cloudy.17 mph88%29.80 "HgN/A
1:30 AM55 °FSprinkles. Clear.15 mph88%29.80 "HgN/A
1:00 AM55 °FLight rain. Clear.14 mph94%29.77 "HgN/A
12:30 AM57 °FPassing clouds.14 mph94%29.77 "HgN/A
12:00 AM57 °FLight rain. Clear.15 mph88%29.77 "HgN/A
11:30 PM
Tue, May 26
59 °FClear.15 mph82%29.77 "Hg10 mi
11:00 PM59 °FClear.14 mph88%29.77 "Hg10 mi
10:30 PM59 °FSprinkles. Clear.13 mph88%29.77 "HgN/A
10:00 PM59 °FClear.10 mph88%29.77 "Hg10 mi
Weather by CustomWeather, © 2015

See weather overviewHow to use our weather pages